Showing default

IRIDIUM 118, 42807

Orbit data source: Space-Track

IRIDIUM 118, 42807 is a payload satellite owned by Iridium (US) in LEO that was launched on Sun, 25 Jun 2017 UTC via an FALCON 9 launch vehicle from the Air Force Western Test Range (AFWTR). Payload-class satellites include a variety of spacecraft equipped with specific instruments for various scientific and technological missions. These include communications satellites like Starlink; space stations such as the ISS; scientific satellites like the Hubble; Earth observation satellites from companies like Planet Labs, Umbra, and HawkEye 360; GPS; miniature CubeSats for education and research; and military/defense satellites.

Loading next visibility...
Identifier
42807, 2017-039E
Orbit
LEO
Country
Flag of USUS
Related business
Manufacturer
OATK SSG Gilbert
Mission
Operational Commercial Communications
Bus & Motor
ELITEBUS, Unknown motor
Mass
860 kg wet, 700 kg dry
Launch date (UTC)
2017-06-25 (8 years ago)
Launch vehicle
FALCON 9
Launch site
Air Force Western Test Range (AFWTR)
Object type
Payload
Rocket body
Debris
Shape & HBR
Trap Box + 2 Pan, 4.8 m
Radar Cross Section
10.154 m², Large (>1 m²)

Expand to show TLE details & history
Last TLE update: 8 hours ago

TLE from 8 hours ago
0 IRIDIUM 118
1 42807U 17039E   25312.77526447  .00000167  00000-0  52744-4 0  9996
2 42807  86.3944  85.7776 0002228  89.8298 270.3154 14.34218899438359
Epoch: 2025-11-08T18:36Z
TLE epoch observation values (Epoch: 2025-11-08T18:36:22.850Z)
Latitude
0.00008°
Longitude
118.48236°
Altitude
780.706 km
Speed
7.463 km/s
True Right ascension
05h 43m 06s
True Declination
0° 00' 00"
Sunlit
Object was in full shadow at epoch
Visualization orbit readout
Latitude
Unknown
Longitude
Unknown
Altitude
Unknown
Speed
Unknown
Apparent Right ascension
Unknown
Apparent Declination
Unknown
Sunlit
N/A
Visualization observer readout
Local Sidereal Time
22:22:59
Azimuth
Unknown
Elevation
Unknown
Doppler factor
Unknown
Orbital elements
Apogee altitude
776.222 km
Perigee altitude
773.034 km
Semi-major axis
7,152.765 km
Eccentricity
0.00022
Inclination
86.3944°
RAAN
85.7776°
Arg. of periapsis
89.8298°
True anomaly
270.28987°
Mean anomaly
270.3154°
Eccentric anomaly
270.30263°
Mean motion
3.58783 °/min
Orbital period
100.34 mins
BSTAR
0.000052744
Loading maneuver chart data...
Computing Atmospheric mass density...
Loading historical data...
Loading historical data...
Loading historical data...
Loading historical data...
Loading historical data...
Loading historical data...
Loading historical data...

Documentation

Showing up to 5 results
|